User: anonymous   Login
Location: Hepcat Sky Observatory
(29.9800°N, 95.6500°W)
Time: 14:07:23
(UTC-05:00)
Language:

Cosmos 1602 Rocket - Orbit

View from above orbital plane
View from above orbital plane
View from above satellite
View from above satellite

Ground track
Ground track

The orbit data is extracted from the following two-line orbital elements,

1 15332U 84105B   17176.11187484 +.00000062 +00000-0 +46602-5 0  9999
2 15332 082.5336 180.6690 0020789 348.6434 075.4889 14.83309474746675
Epoch (UTC): 25 June 2017 02:41:05
Eccentricity: 0.0020789
inclination: 82.5336°
perigee height: 604 km
apogee height: 633 km
right ascension of ascending node: 180.6690°
argument of perigee: 348.6434°
revolutions per day: 14.83309474
mean anomaly at epoch: 75.4889°
orbit number at epoch: 74667

The dashed part of the orbit path shows where the satellite is in the earth's shadow,  

DLR